Temperature
15 15 15 15 15 15 15 15 14 14 14 14 14 14 14 13 13 13 13 14 14 13 13 13 12 12 12 12 12 13 13 13 13 13 13 12 12 12 12 12 12 11 11
15 15 15 15 15 15 14 14 14 14 13 13 13 13 13 13 13 13 13 13 13 13 13 13 12 12 12 12 12 12 12 12 12 12 12 12 12 12 12 11 11 11 11
15 15 14 14 14 14 14 14 13 13 13 13 13 13 13 13 13 13 12 13 13 13 13 12 12 12 12 11 11 11 11 11 11 11 11 11 11 11 11 11 11 11 11
14 14 14 14 14 14 14 13 13 13 13 13 13 13 13 13 13 12 12 12 12 12 12 12 12 12 12 11 11 11 10 11 11 11 11 11 11 11 11 11 10 10 10
14 14 14 14 14 14 13 13 13 13 13 13 12 12 12 13 13 13 13 12 12 12 12 12 12 12 12 11 11 11 10 10 10 10 10 10 10 10 10 10 10 10 9
14 14 14 14 14 14 14 13 13 13 13 13 12 12 13 13 13 13 13 12 12 12 12 12 12 12 12 11 11 11 10 10 10 9 9 9 9 9 9 9 9 9 9
14 14 14 14 14 14 13 13 13 13 13 12 12 12 12 12 12 12 12 12 12 12 12 12 12 12 11 11 11 11 10 10 9 9 9 9 9 9 9 8 8 8 8
14 14 14 14 14 13 13 13 13 12 12 12 11 11 11 12 12 12 12 12 12 12 12 12 11 11 11 11 11 11 10 10 9 9 9 9 8 8 8 8 7 7 7
14 14 14 14 13 13 13 13 13 12 12 11 11 11 11 12 12 11 11 11 11 11 11 11 11 11 10 10 10 10 10 10 9 9 9 8 8 8 8 7 7 7 6
14 14 13 13 13 13 13 13 12 12 11 11 11 10 10 10 10 10 10 10 10 10 10 10 10 10 10 10 10 10 10 9 9 9 9 8 8 8 7 7 7 7 6
13 13 13 13 12 12 12 12 12 12 11 11 10 10 10 9 9 9 9 9 9 9 9 9 9 9 9 9 9 9 9 9 9 9 8 8 8 8 7 7 7 6 6
12 12 12 12 12 11 11 11 11 11 10 10 10 9 9 9 9 9 9 9 9 9 8 8 8 8 8 8 8 8 8 8 8 8 8 8 8 7 7 7 6 6 6
11 11 11 11 10 10 10 10 10 10 10 9 9 9 9 8 8 8 8 8 8 8 8 8 8 8 8 7 7 7 7 7 7 7 7 7 7 7 7 7 6 6 6
10 10 10 10 9 9 9 9 9 9 9 9 9 9 8 8 8 8 7 7 7 7 7 7 7 7 7 6 6 7 7 7 7 7 7 7 7 6 6 6 6 6 5
9 9 9 9 9 9 9 8 8 8 8 8 8 8 8 8 8 7 7 7 6 6 6 6 6 6 6 6 6 6 6 6 6 6 6 6 6 6 6 6 5 5 5
8 8 8 8 8 8 8 8 8 8 8 8 7 7 7 7 7 7 7 6 6 5 5 5 5 5 5 5 5 5 5 5 5 5 5 5 5 5 5 5 5 4 4
7 7 7 7 7 7 7 7 7 7 7 7 7 7 7 7 7 7 6 6 5 5 4 4 4 4 4 4 4 4 4 4 4 4 4 4 4 4 4 4 4 3 3
6 6 6 6 6 6 6 6 6 6 6 6 6 6 6 6 6 6 5 5 5 5 4 4 4 4 4 4 3 3 3 3 3 3 3 3 3 3 3 3 3 2 2
5 5 5 5 5 5 5 5 5 5 5 5 5 5 5 5 5 5 4 4 4 4 4 3 3 3 3 3 3 3 2 2 2 2 2 2 2 2 2 2 2 2 1
4 4 4 4 5 5 5 5 5 5 5 5 4 4 4 4 4 4 4 3 3 3 3 2 2 2 2 2 2 2 2 1 1 1 1 1 1 1 1 1 1 1 1
3 3 3 4 4 4 4 4 4 4 4 4 4 3 3 3 3 3 3 2 2 2 2 1 1 1 1 1 1 1 1 1 1 1 1 1 1 1 0 0 0 0 0
2 2 2 2 3 3 3 3 3 3 3 3 3 2 2 2 2 2 1 1 1 1 1 0 0 -0 -0 -0 -1 -1 -1 -1 -1 -0 -0 -0 -0 -0 -0 -0 -0 -0 -0
1 1 2 2 2 2 2 2 2 2 2 2 2 2 1 1 1 1 0 0 0 -0 -0 -1 -1 -1 -2 -2 -2 -2 -2 -2 -2 -2 -2 -1 -2 -2 -1 -1 -1 -1 -1
1 1 1 1 1 2 2 2 2 2 2 2 1 1 1 0 0 -0 -0 -1 -1 -1 -1 -2 -2 -2 -2 -3 -3 -3 -3 -3 -3 -3 -3 -3 -3 -3 -2 -2 -2 -2 -2
0 1 1 1 1 1 1 1 1 1 1 1 1 0 -0 -1 -1 -1 -1 -2 -2 -2 -2 -2 -2 -3 -3 -3 -3 -4 -4 -4 -5 -5 -4 -4 -4 -4 -3 -3 -3 -3 -3
0 0 1 1 1 1 1 1 1 1 0 0 -0 -0 -1 -1 -1 -2 -2 -3 -3 -3 -3 -3 -3 -3 -4 -4 -4 -4 -5 -5 -5 -6 -5 -5 -5 -5 -5 -4 -4 -4 -4
Wind_Speed
5 5 5 5 5 5 5 6 6 6 6 6 6 7 7 8 8 8 7 9 12 12 12 12 11 10 10 9 8 7 6 6 5 4 3 3 2 2 1 1 2 2 3
6 5 5 5 6 6 6 6 7 6 7 7 7 8 9 9 9 9 9 9 13 15 15 15 15 14 13 12 11 11 10 9 8 7 6 6 5 4 3 2 2 2 3
7 7 6 6 7 7 7 7 8 7 7 7 9 10 10 10 10 11 11 10 10 14 18 18 18 17 16 16 15 14 13 13 12 11 10 9 8 7 6 5 4 3 3
9 8 7 7 8 7 7 7 7 7 8 8 8 8 8 9 12 12 12 12 12 11 14 19 21 20 19 19 18 17 16 16 15 14 13 12 11 10 9 8 7 5 4
10 9 8 8 9 8 7 6 7 7 8 9 8 8 8 9 10 11 13 14 14 13 13 14 20 22 22 21 21 20 19 18 18 17 16 15 14 13 12 11 10 8 7
9 9 8 9 9 7 7 7 9 8 8 8 8 9 10 10 10 11 12 12 12 13 14 14 13 16 22 24 23 23 22 21 20 20 19 18 17 16 15 14 13 12 10
8 9 8 8 8 8 9 9 9 9 8 7 6 8 10 11 12 10 9 9 10 11 12 12 12 13 12 17 22 24 24 23 22 22 22 21 20 19 18 17 16 15 13
5 6 7 7 7 7 9 10 9 7 6 6 6 6 7 8 9 8 8 7 9 8 9 10 11 12 12 12 13 18 23 24 24 23 23 23 22 22 21 20 19 17 16
4 5 6 6 6 7 8 9 9 11 9 8 8 7 7 6 5 4 6 6 7 6 7 7 9 10 11 12 12 13 17 20 23 23 23 23 23 23 23 22 21 20 19
2 3 4 6 6 6 8 9 9 9 10 9 8 8 10 8 6 6 5 5 5 7 7 6 7 9 9 10 10 12 13 16 20 22 23 23 22 23 24 23 23 22 21
1 2 3 4 5 5 7 8 8 8 8 9 8 7 8 8 9 8 8 7 6 6 6 6 6 7 7 8 8 9 11 14 17 20 22 22 22 22 23 23 24 23 22
1 2 3 3 4 4 5 6 7 8 8 9 8 8 7 7 7 7 8 8 7 6 6 5 5 5 6 6 7 9 11 13 15 17 19 20 20 19 19 19 19 22 21
2 2 3 3 4 4 5 5 6 6 6 7 7 6 6 5 5 5 7 7 6 5 5 4 2 4 5 6 7 11 10 11 13 15 17 18 17 16 15 15 15 15 17
2 3 3 3 4 4 4 4 4 4 4 4 4 3 3 2 3 3 4 4 5 5 5 5 1 5 7 7 10 10 9 10 12 13 15 15 14 10 9 9 9 10 12
2 2 2 2 2 3 3 3 2 2 2 2 2 2 1 2 2 2 2 2 4 5 5 2 1 4 7 8 10 9 9 11 12 11 11 10 7 4 3 2 3 6 9
0 1 1 1 2 3 3 2 2 2 3 3 3 4 4 3 3 3 2 2 1 3 3 1 2 4 6 7 9 8 8 10 11 11 9 8 4 3 2 2 4 7 9
0 1 1 1 2 3 3 3 3 4 4 5 5 5 5 5 4 4 3 2 2 1 3 1 1 3 5 6 7 8 8 9 9 12 11 8 6 5 5 5 7 8 8
1 1 2 2 3 3 3 4 4 5 5 6 5 6 6 4 5 4 3 3 2 2 1 2 1 3 3 5 6 6 7 8 9 12 12 11 10 9 9 8 6 5 4
2 2 3 3 3 3 4 4 5 6 6 6 6 6 6 5 5 4 4 4 3 2 2 0 1 2 2 4 4 4 5 6 7 10 11 11 11 10 8 6 4 2 2
3 3 4 4 4 4 4 5 5 6 7 7 7 7 6 6 6 5 4 5 4 3 2 1 1 1 2 3 3 4 3 4 5 6 7 7 8 8 7 6 4 2 1
3 4 4 4 4 4 4 4 5 5 6 6 6 7 8 9 9 7 5 5 4 3 2 2 1 1 2 3 3 4 4 3 2 4 4 4 4 4 3 3 3 3 4
4 4 4 4 5 4 6 6 5 5 5 5 5 5 6 7 8 9 10 9 7 4 3 2 1 2 2 3 3 4 4 4 2 3 5 4 3 3 3 3 4 6 7
5 5 5 5 5 7 8 7 7 5 5 5 4 4 3 4 5 4 5 6 7 8 6 3 2 2 3 3 4 4 4 4 4 5 5 4 3 4 3 4 6 8 8
5 5 5 4 5 6 7 7 7 5 5 4 3 3 2 2 3 3 3 3 3 3 4 3 3 3 3 3 3 3 4 5 5 3 3 3 4 5 5 6 3 5 6
5 4 4 3 3 3 5 6 5 3 3 2 1 1 1 1 2 1 1 2 1 1 2 3 4 4 4 4 5 4 3 4 4 2 1 3 4 6 6 4 2 3 5
5 4 3 2 2 2 3 5 4 2 1 1 1 1 1 3 3 1 2 3 3 2 2 2 2 2 2 2 2 3 3 3 3 3 1 3 4 4 5 3 3 5 7
Wind_Direction
215 219 224 225 231 234 234 242 250 257 264 268 267 270 273 270 269 266 262 244 249 255 257 252 243 239 236 236 237 234 229 228 226 224 224 222 214 202 175 143 110 95 89
228 232 236 235 238 238 244 250 256 263 267 267 270 268 268 268 265 265 265 255 242 245 249 250 247 245 242 238 237 233 228 227 226 225 225 223 219 212 202 195 177 147 127
234 238 246 245 245 244 247 253 260 263 267 267 267 268 268 267 265 264 262 261 256 242 241 245 246 246 244 242 239 235 229 226 226 225 224 223 220 217 211 207 201 188 170
235 242 246 250 252 252 250 252 259 261 262 263 268 268 265 264 265 266 263 257 258 256 244 238 243 246 247 245 243 240 234 227 225 225 224 223 221 220 218 213 210 207 200
237 240 246 253 255 253 253 254 257 260 267 269 270 274 272 268 267 264 262 260 256 254 256 246 238 243 246 247 247 245 241 232 226 224 224 223 222 221 220 217 214 213 209
237 241 247 253 255 252 252 251 254 255 262 272 276 273 272 268 263 262 264 263 259 256 256 259 253 248 243 246 248 249 248 242 232 226 224 223 222 222 222 221 217 216 214
242 241 248 254 252 252 256 257 256 259 258 259 267 274 269 261 259 259 259 262 262 261 259 259 259 261 256 244 245 248 250 249 243 234 227 225 223 222 222 222 220 219 217
250 249 251 255 253 254 257 258 256 256 257 241 250 276 281 274 249 245 250 254 264 264 260 262 262 261 264 265 256 248 250 253 252 246 236 229 225 223 223 222 221 220 219
258 255 258 261 261 258 260 261 257 254 259 253 239 249 269 274 293 245 244 254 264 269 270 272 270 269 268 266 268 260 254 255 258 257 250 240 232 226 224 223 222 221 220
272 274 271 269 267 263 263 265 263 260 260 261 251 242 251 271 275 281 256 258 268 273 278 278 278 278 276 273 272 275 274 268 264 262 260 253 243 234 228 224 223 221 221
274 298 291 282 276 273 271 271 269 263 259 260 259 253 249 251 251 261 275 276 268 269 279 287 291 294 296 289 286 292 291 280 274 269 265 261 254 244 236 231 226 222 220
260 310 310 295 289 285 281 278 273 267 262 260 260 256 254 253 251 251 264 272 275 281 285 291 298 312 319 315 312 320 305 294 286 280 274 269 265 259 246 238 232 224 219
265 307 313 304 298 294 289 285 277 275 273 269 265 264 261 264 271 266 269 277 277 279 279 279 319 347 349 341 342 341 319 311 300 291 283 278 276 276 266 249 237 226 215
289 308 308 307 307 305 299 291 283 283 286 283 284 281 274 281 282 269 267 272 275 270 262 267 13 24 6 356 356 344 335 333 320 308 299 291 287 285 278 265 249 226 206
294 303 318 323 333 335 327 311 305 317 325 342 340 335 334 359 359 341 309 273 266 271 269 284 18 23 4 358 357 348 346 347 339 329 320 316 310 302 283 251 232 208 182
288 294 353 5 14 18 13 24 37 34 57 49 41 51 49 37 36 30 21 6 307 271 268 17 14 359 356 358 1 359 359 357 0 354 351 352 8 34 80 143 166 158 157
102 69 57 54 49 46 46 63 68 67 74 68 59 62 58 49 50 41 40 41 30 315 260 277 13 355 358 1 3 9 12 13 16 23 24 30 49 77 99 116 134 140 148
99 87 86 78 68 62 63 75 79 74 76 73 67 66 60 57 57 48 45 46 38 7 290 263 333 354 2 3 359 9 16 21 24 29 34 42 54 72 80 86 100 123 153
112 99 95 89 83 80 80 82 88 85 80 76 69 67 62 60 59 52 48 43 31 20 4 301 350 3 1 1 356 5 16 20 24 25 34 43 49 55 60 64 74 107 162
121 107 98 94 93 91 90 92 95 94 87 77 69 63 56 54 53 49 44 36 27 29 35 47 44 20 9 358 357 356 359 9 11 14 25 32 35 40 45 45 41 32 307
118 113 109 103 101 96 94 103 102 101 97 88 75 65 57 51 49 49 43 31 23 22 29 40 38 22 18 4 2 351 342 339 6 9 352 5 1 1 5 6 354 325 295
119 113 111 108 100 93 100 100 107 106 98 94 85 70 62 52 50 54 52 45 36 30 27 22 22 21 15 3 354 349 343 335 328 13 341 330 334 326 331 325 324 304 287
128 121 114 110 105 103 104 102 98 100 96 87 80 73 65 56 45 46 54 53 52 49 39 15 25 18 1 357 349 340 346 334 322 339 329 311 326 314 320 312 313 302 288
140 131 125 122 117 111 110 110 107 98 96 87 76 67 62 48 39 16 28 34 38 44 33 18 16 2 345 333 319 312 316 307 295 302 319 301 322 315 316 305 317 312 299
143 140 136 132 127 123 130 135 130 124 114 107 91 51 5 12 44 358 355 344 335 35 43 18 4 354 348 336 321 302 309 312 308 316 338 300 317 317 307 294 291 276 288
153 153 147 151 164 178 166 167 168 168 163 177 198 238 322 330 341 307 304 309 315 329 327 320 304 296 305 324 324 301 296 292 297 305 355 307 313 329 315 298 283 279 279
Height
1574 1575 1575 1575 1576 1576 1576 1576 1577 1577 1576 1576 1575 1574 1574 1573 1573 1572 1571 1570 1569 1569 1568 1567 1566 1565 1564 1563 1562 1560 1559 1558 1558 1557 1556 1556 1556 1555 1555 1555 1555 1555 1555
1572 1573 1574 1574 1574 1574 1575 1575 1575 1574 1574 1574 1573 1572 1572 1571 1570 1569 1568 1567 1566 1566 1565 1565 1564 1563 1562 1561 1560 1559 1558 1557 1556 1555 1555 1554 1554 1554 1554 1554 1554 1554 1554
1570 1571 1572 1572 1572 1572 1572 1572 1573 1572 1572 1571 1571 1570 1569 1568 1567 1566 1565 1564 1563 1562 1562 1561 1561 1560 1559 1558 1557 1556 1555 1554 1554 1553 1553 1553 1552 1552 1552 1552 1553 1553 1553
1568 1569 1569 1570 1570 1570 1570 1570 1570 1569 1569 1568 1568 1567 1566 1565 1564 1563 1562 1561 1560 1559 1558 1557 1557 1556 1555 1555 1554 1553 1552 1552 1551 1551 1551 1550 1550 1550 1550 1550 1551 1551 1551
1566 1566 1567 1567 1568 1567 1567 1567 1566 1566 1566 1565 1564 1563 1562 1561 1560 1558 1558 1557 1556 1555 1554 1553 1552 1552 1551 1551 1550 1550 1549 1548 1548 1548 1548 1547 1547 1548 1548 1548 1548 1549 1549
1563 1563 1563 1564 1564 1564 1563 1563 1563 1562 1561 1561 1559 1558 1557 1555 1554 1553 1553 1552 1551 1550 1549 1548 1547 1546 1546 1545 1545 1545 1545 1545 1544 1543 1544 1544 1544 1544 1545 1545 1545 1546 1547
1559 1559 1559 1560 1559 1559 1559 1559 1558 1557 1556 1556 1554 1552 1551 1550 1549 1548 1547 1547 1546 1545 1544 1543 1542 1541 1540 1539 1539 1539 1539 1540 1540 1539 1539 1539 1540 1540 1541 1541 1542 1543 1544
1555 1555 1555 1555 1554 1554 1554 1553 1553 1552 1551 1551 1550 1549 1547 1546 1543 1542 1542 1542 1541 1541 1539 1538 1537 1536 1535 1534 1533 1533 1533 1534 1534 1534 1534 1534 1535 1535 1536 1537 1538 1539 1540
1550 1550 1550 1549 1549 1548 1548 1548 1547 1546 1545 1545 1545 1545 1543 1540 1540 1538 1537 1537 1537 1536 1535 1534 1532 1531 1530 1528 1528 1527 1527 1527 1528 1528 1529 1529 1529 1530 1531 1532 1533 1534 1536
1545 1544 1544 1544 1543 1543 1542 1542 1541 1540 1539 1539 1539 1538 1538 1537 1536 1533 1533 1532 1531 1531 1530 1529 1527 1526 1524 1523 1522 1521 1521 1520 1520 1521 1522 1523 1523 1524 1525 1526 1527 1528 1530
1539 1539 1538 1538 1537 1536 1536 1535 1534 1534 1533 1532 1532 1532 1532 1531 1530 1529 1527 1528 1527 1526 1525 1524 1522 1521 1519 1517 1516 1515 1515 1514 1514 1514 1515 1516 1517 1517 1518 1519 1520 1522 1524
1534 1533 1533 1532 1531 1530 1530 1529 1528 1527 1527 1526 1526 1526 1526 1526 1525 1524 1523 1522 1522 1521 1521 1519 1518 1516 1514 1512 1511 1510 1509 1508 1507 1507 1508 1509 1510 1511 1511 1512 1514 1515 1517
1529 1528 1527 1526 1525 1525 1524 1523 1522 1521 1521 1520 1520 1520 1520 1519 1520 1519 1519 1517 1517 1516 1515 1514 1513 1511 1509 1507 1506 1504 1503 1502 1501 1501 1501 1502 1503 1504 1505 1506 1508 1509 1511
1524 1523 1522 1521 1520 1519 1518 1518 1517 1516 1516 1515 1515 1514 1514 1514 1514 1514 1514 1513 1512 1511 1511 1510 1508 1506 1505 1503 1501 1500 1498 1497 1496 1495 1495 1496 1496 1496 1498 1499 1501 1503 1506
1519 1518 1517 1516 1515 1514 1514 1513 1512 1511 1511 1510 1510 1510 1510 1509 1509 1509 1509 1509 1509 1508 1507 1506 1504 1502 1500 1499 1497 1495 1494 1492 1491 1490 1490 1490 1490 1491 1492 1494 1496 1498 1501
1515 1514 1513 1512 1511 1510 1509 1509 1508 1507 1507 1506 1506 1506 1505 1505 1505 1504 1504 1504 1504 1504 1503 1501 1500 1498 1496 1495 1493 1491 1490 1488 1487 1486 1486 1485 1486 1486 1488 1490 1492 1494 1496
1511 1510 1509 1508 1508 1507 1506 1505 1504 1504 1504 1503 1503 1502 1502 1501 1501 1501 1500 1500 1500 1500 1499 1498 1496 1495 1493 1491 1490 1488 1487 1485 1484 1483 1483 1482 1483 1483 1485 1486 1488 1490 1492
1507 1506 1506 1505 1504 1504 1503 1503 1502 1501 1501 1500 1500 1500 1499 1499 1498 1498 1497 1497 1496 1496 1495 1494 1493 1491 1490 1489 1487 1486 1484 1483 1482 1481 1481 1481 1481 1481 1482 1484 1485 1487 1489
1503 1503 1502 1502 1501 1501 1501 1500 1499 1499 1498 1498 1497 1497 1497 1496 1496 1495 1494 1494 1493 1493 1492 1491 1490 1488 1487 1486 1485 1484 1482 1481 1481 1480 1480 1479 1480 1480 1481 1482 1483 1484 1486
1499 1499 1499 1499 1498 1498 1498 1498 1497 1497 1496 1496 1495 1495 1494 1494 1493 1493 1492 1491 1491 1490 1489 1488 1487 1486 1485 1483 1483 1481 1480 1480 1479 1478 1478 1477 1477 1478 1478 1479 1480 1480 1481
1496 1496 1496 1496 1496 1496 1496 1496 1495 1495 1494 1494 1494 1493 1492 1492 1491 1490 1490 1489 1488 1487 1487 1486 1485 1483 1482 1481 1480 1479 1478 1477 1476 1476 1475 1475 1474 1474 1474 1474 1475 1475 1475
1494 1494 1494 1494 1494 1494 1494 1494 1494 1493 1493 1492 1492 1491 1491 1490 1489 1488 1487 1487 1486 1485 1484 1483 1482 1481 1480 1479 1478 1477 1476 1475 1474 1473 1472 1471 1471 1470 1469 1469 1469 1469 1469
1492 1492 1493 1493 1493 1493 1493 1493 1492 1492 1492 1491 1490 1490 1489 1488 1487 1486 1485 1484 1483 1482 1482 1481 1480 1479 1477 1476 1475 1474 1473 1472 1471 1469 1469 1468 1467 1466 1465 1464 1464 1463 1463
1490 1491 1491 1492 1492 1492 1492 1491 1491 1491 1490 1489 1489 1488 1487 1486 1485 1484 1483 1482 1481 1479 1479 1478 1477 1476 1475 1474 1473 1472 1471 1469 1468 1467 1466 1465 1464 1463 1461 1460 1459 1458 1458
1489 1490 1490 1491 1491 1491 1491 1490 1490 1490 1489 1488 1487 1486 1485 1484 1483 1482 1481 1480 1479 1477 1476 1475 1474 1473 1472 1471 1470 1469 1468 1467 1466 1466 1464 1463 1461 1459 1458 1457 1455 1455 1454
1488 1488 1489 1489 1490 1490 1490 1489 1489 1488 1487 1486 1485 1484 1483 1482 1481 1480 1479 1478 1477 1476 1474 1473 1472 1471 1470 1469 1468 1467 1466 1465 1464 1464 1461 1461 1459 1457 1456 1454 1453 1452 1451